#timestamp,LO_Frequency,Hit,StdDev 
1560484815.6,286046998.8,N
1560484835.5,286047000.9,N
1560484855.3,286047000.7,N
1560484875.1,286047002.3,N
1560484895.9,286047002.8,N
1560484915.7,286047002.3,N
1560484935.5,286047000.1,N
1560484955.4,286047001.0,N
1560484975.2,286046998.5,N
1560484995.0,286046998.9,N
1560484995.9,286046998.9,N
1560485015.8,286047000.9,N
1560485035.6,286047000.0,N
1560485055.4,286047000.1,N
1560485075.3,286046999.7,N
1560485095.1,286047002.5,N
1560485096.0,286047002.5,N
1560485115.8,286046999.8,N
1560485135.7,286047002.5,N
1560485155.5,286047001.5,N
1560485175.3,286046999.7,N
1560485195.2,286047001.1,N
1560485215.9,286046999.3,N
1560485235.7,286046998.7,N
1560485255.6,286046999.1,N
1560485275.4,286047000.4,N
1560485295.2,286047000.6,N
1560485315.1,286047000.5,N
1560485316.0,286047000.5,N
1560485335.8,286046997.0,N
1560485355.6,286046999.1,N
1560485375.5,286046999.2,N
1560485395.3,286046999.4,N
1560485415.1,286046996.5,N
1560485435.9,286046995.0,Y
1560485455.7,286046995.1,P
1560485475.5,286046995.8,N
1560485495.4,286046995.2,N
1560485515.2,286046997.3,N
1560485535.0,286046997.2,N
1560485535.9,286046997.2,N
1560485555.8,286046997.9,N
1560485575.6,286046997.4,N
1560485595.4,286046998.0,N
1560485615.3,286046995.2,Y
1560485635.1,286046999.0,P
1560485655.8,286046999.0,N
1560485675.7,286047001.1,N
1560485695.5,286047000.5,N
1560485715.3,286047000.8,N
1560485735.2,286047001.0,N
1560485755.0,286047000.2,N
1560485755.9,286047000.2,N
1560485775.7,286046999.7,N
1560485795.6,286047000.5,N
1560485815.4,286047000.1,N
1560485835.2,286047002.8,N
1560485855.1,286047001.5,N
1560485856.0,286047001.5,N
1560485875.8,286047004.2,Y
1560485895.6,286047003.1,P
1560485915.5,286047003.5,N
1560485935.3,286047003.1,N
1560485955.1,286047003.4,N
1560485975.9,286047003.4,N
1560485995.7,286047005.3,Y
1560486015.5,286047002.8,P
1560486035.4,286047001.5,P
1560486055.2,286046999.8,N
1560486075.0,286047002.3,N
1560486076.0,286047002.3,N
1560486095.8,286047000.2,N
1560486115.6,286046999.9,N
1560486135.4,286047001.0,N
1560486155.3,286046998.8,N
1560486175.1,286046998.9,N
1560486195.8,286046998.2,N
1560486215.7,286046998.3,N
1560486235.5,286046998.1,N
1560486255.3,286047011.9,Y
1560486275.2,286046999.3,P
1560486295.0,286046999.6,N
1560486295.9,286046999.6,N
1560486315.8,286046997.1,Y
1560486335.6,286046997.5,P
1560486355.4,286046995.4,P
1560486375.3,286046995.3,N
1560486395.1,286046996.0,N
1560486396.0,286046996.0,N
1560486415.8,286046996.1,N
1560486435.7,286046996.4,N
1560486455.5,286046993.3,Y
1560486475.3,286046998.3,P
1560486495.2,286046998.1,N
1560486515.9,286046998.5,N
1560486535.7,286046999.0,N
1560486555.6,286046999.3,N
1560486575.4,286046999.1,N
1560486595.2,286046996.8,Y
1560486615.1,286046998.8,P
1560486616.0,286046998.8,P
1560486635.8,286046998.5,P
1560486655.6,286047001.1,Y
1560486675.5,286046999.8,P
1560486695.3,286047000.4,N
1560486715.1,286047000.2,N
1560486735.9,286047002.7,Y
1560486755.7,286047002.0,P
1560486775.5,286047005.9,P
1560486795.4,286047007.6,N
1560486815.2,286047005.3,N
1560486835.0,286047007.1,N
1560486835.9,286047007.1,N
1560486855.8,286047008.1,N
1560486875.6,286047010.6,Y
1560486895.4,286047005.7,P
1560486915.3,286047007.3,P
1560486935.1,286047005.7,P
1560486955.8,286047004.9,Y
1560486975.7,286046998.7,P
1560486995.5,286046997.0,N
1560487015.3,286046995.7,N
1560487035.2,286046996.7,N
1560487055.0,286046999.2,N
1560487055.9,286046999.2,N
1560487075.7,286046998.0,N
1560487095.6,286046995.8,N
1560487115.4,286046995.9,N
1560487135.2,286046997.7,N
1560487155.1,286046998.2,N
1560487156.0,286046998.2,N
1560487175.8,286047000.0,N
1560487195.6,286047000.9,N
1560487215.5,286047001.2,N
1560487235.3,286047000.2,N
1560487255.1,286047000.7,N
1560487275.9,286047002.5,N
1560487295.7,286047000.0,N
1560487315.5,286047001.0,N
1560487335.4,286046998.5,N
1560487355.2,286046996.6,N
1560487375.0,286046996.2,N
1560487376.0,286046996.2,N
1560487395.8,286046994.2,N
1560487415.6,286046993.6,N
1560487435.5,286046994.4,N
1560487455.3,286046996.4,N
1560487475.1,286046997.8,N
1560487495.9,286046996.1,N
1560487515.7,286046996.2,N
1560487535.5,286046996.3,N
1560487555.4,286046993.5,N
1560487575.2,286046993.8,N
1560487595.0,286046992.2,Y
1560487595.9,286046992.2,P
1560487615.8,286046996.0,N
1560487635.6,286046993.9,N
1560487655.4,286046996.1,N
1560487675.3,286046995.5,N
1560487695.1,286046995.6,N
1560487696.0,286046995.6,N
1560487715.8,286046994.5,Y
1560487735.7,286046999.0,P
1560487755.5,286046996.5,N
1560487775.3,286046997.7,N
1560487795.2,286046995.2,Y
1560487815.9,286046999.0,P
1560487835.7,286046998.2,N
1560487855.6,286047000.7,N
1560487875.4,286047000.0,N
1560487895.2,286047002.4,N
1560487915.1,286047000.1,N
1560487916.0,286047000.1,N
1560487935.8,286047002.3,N
1560487955.6,286047002.2,N
1560487975.5,286047002.2,N
1560487995.3,286047002.2,N
1560488015.1,286047004.4,N
1560488035.9,286047004.4,N
1560488055.7,286047004.3,N
1560488075.5,286047003.7,N
1560488095.4,286047004.3,N
1560488115.2,286047003.2,N
1560488135.0,286047002.9,N
1560488135.9,286047002.9,N
1560488155.8,286047006.0,N
1560488175.6,286047005.4,N
1560488195.4,286047007.6,Y
1560488215.3,286047005.3,P
1560488235.1,286047003.4,N
1560488255.8,286047003.8,N
1560488275.7,286047003.8,Y
1560488295.5,286047000.4,P
1560488315.3,286047000.5,N
1560488335.2,286046999.7,N
1560488355.0,286047002.4,N
1560488355.9,286047002.4,N
1560488375.7,286047002.5,N
1560488395.6,286047001.3,N
